Bad Axe, MI

10:05 AM EDT on August 27, 2016 (GMT -0400)
Huron County Memorial

Weather History for KBAX - October, 2012

Change the Weather History Date:

Wednesday, October 31, 2012

  Actual Average (KP58) Record (KP58)
Temperature  
Mean Temperature 40 °F -  
Max Temperature 41 °F 51 °F 75 °F (2011)
Min Temperature 38 °F 39 °F 30 °F (1996)
Degree Days  
Heating Degree Days 26    
Moisture  
Dew Point 39 °F    
Average Humidity 97    
Maximum Humidity 100    
Minimum Humidity 89    
Precipitation  
Precipitation 0.00 in - - ()
Sea Level Pressure  
Sea Level Pressure 29.53 in    
Wind  
Wind Speed 16 mph (NW)    
Max Wind Speed 22 mph    
Max Gust Speed 31 mph    
Visibility 5 miles    
Events Rain    
Averages and records for this station are not official NWS values.
T = Trace of Precipitation, MM = Missing Value Source: NWS Daily Summary

Daily Weather History Graph

Daily Weather History Graph

Search for Another Location

Airport or City:

Trip Planner

Search our weather history database for the weather conditions in past years. The results will help you decide how hot, cold, wet, or windy it might be!

Date:

Astronomy

Oct. 31, 2012 Rise Set
Actual Time 8:07 AM EDT 6:23 PM EDT
Civil Twilight 7:37 AM EDT 6:53 PM EDT
Nautical Twilight 7:03 AM EDT 7:26 PM EDT
Astronomical Twilight 6:29 AM EDT 8:00 PM EDT
Moon 7:29 PM EDT (10/31) 9:50 AM EDT (10/31)
Length of Visible Light 11h 15m
Length of Day
10h 15m
Full, 97% of the Moon is Illuminated
Oct 31
Full
Nov 6
Last Quarter
Nov 13
New
Nov 20
First Quarter
Nov 28
Full

Hourly Weather History & Observations

Time (EDT) Temp. Windchill Dew Point Humidity Pressure Visibility Wind Dir Wind Speed Gust Speed Precip Events Conditions
12:13 AM 41.9 °F 32.6 °F 41.0 °F 97% 29.48 in 5.0 mi North 21.9 mph 27.6 mph N/A   Overcast
12:33 AM 41.9 °F 33.4 °F 41.0 °F 97% 29.47 in 2.0 mi North 18.4 mph 27.6 mph N/A Rain Light Rain
12:53 AM 41.9 °F 33.4 °F 41.2 °F 97% 29.47 in 2.0 mi North 18.4 mph 26.5 mph N/A Rain Light Rain
1:13 AM 41.7 °F 32.6 °F 41.0 °F 97% 29.47 in 2.5 mi North 20.7 mph 28.8 mph N/A Rain Light Rain
1:33 AM 41.9 °F 33.7 °F 41.2 °F 97% 29.47 in 4.0 mi North 17.3 mph 23.0 mph N/A Rain Light Rain
1:53 AM 41.9 °F 33.4 °F 41.2 °F 97% 29.47 in 2.5 mi North 18.4 mph 31.1 mph N/A Rain Light Rain
2:13 AM 41.9 °F 34.0 °F 41.2 °F 97% 29.47 in 3.0 mi North 16.1 mph 27.6 mph N/A Rain Light Rain
2:33 AM 41.9 °F 33.7 °F 41.2 °F 97% 29.47 in 2.5 mi North 17.3 mph 26.5 mph N/A Rain Light Rain
2:53 AM 41.9 °F 32.8 °F 41.4 °F 98% 29.47 in 4.0 mi North 20.7 mph 28.8 mph N/A Rain Light Rain
3:13 AM 41.9 °F 32.6 °F 41.2 °F 97% 29.48 in 4.0 mi North 21.9 mph 26.5 mph N/A Rain Light Rain
3:53 AM 41.9 °F 34.0 °F 41.2 °F 97% 29.48 in 2.5 mi North 16.1 mph 28.8 mph N/A   Unknown
4:13 AM 41.9 °F 34.3 °F 41.5 °F 99% 29.48 in 2.5 mi North 15.0 mph 20.7 mph N/A Rain Light Rain
4:33 AM 41.9 °F 34.6 °F 41.4 °F 98% 29.48 in 3.0 mi North 13.8 mph 20.7 mph N/A Rain Light Rain
4:53 AM 41.9 °F 35.0 °F 41.4 °F 98% 29.49 in 2.5 mi North 12.7 mph - N/A Rain Light Rain
5:13 AM 41.9 °F 33.7 °F 41.4 °F 98% 29.49 in 2.5 mi North 17.3 mph 23.0 mph N/A Rain Light Rain
5:33 AM 41.9 °F 34.3 °F 41.4 °F 98% 29.50 in 2.5 mi North 15.0 mph 21.9 mph N/A Rain Light Rain
5:53 AM 41.5 °F 33.2 °F 41.2 °F 99% 29.50 in 2.5 mi North 17.3 mph 23.0 mph N/A Rain Light Rain
6:13 AM 41.4 °F 33.6 °F 41.0 °F 99% 29.50 in 1.8 mi NNW 15.0 mph 19.6 mph N/A Rain Light Rain
6:33 AM 40.6 °F 32.7 °F 40.3 °F 99% 29.51 in 1.8 mi NNW 15.0 mph 19.6 mph N/A Rain Light Rain
6:53 AM 40.3 °F 32.6 °F 40.1 °F 99% 29.50 in 1.8 mi NNW 13.8 mph 21.9 mph N/A Rain Light Rain
7:13 AM 40.1 °F 31.3 °F 40.1 °F 100% 29.50 in 1.5 mi NNW 17.3 mph 21.9 mph N/A Rain Light Rain
7:33 AM 40.1 °F 31.6 °F 40.1 °F 100% 29.50 in 1.5 mi NNW 16.1 mph 21.9 mph N/A Rain Light Rain
7:54 AM 40.1 °F 32.0 °F 40.1 °F 100% 29.51 in 2.5 mi NNW 15.0 mph 20.7 mph N/A Rain Light Rain
8:13 AM 40.1 °F 32.7 °F 40.1 °F 100% 29.51 in 2.5 mi NW 12.7 mph - N/A Rain Light Rain
8:33 AM 39.6 °F 31.3 °F 39.4 °F 99% 29.52 in 1.0 mi NNW 15.0 mph 18.4 mph N/A Rain Light Rain
8:54 AM 39.2 °F 30.8 °F 39.2 °F 100% 29.53 in 1.0 mi NNW 15.0 mph 19.6 mph N/A Rain Light Rain
9:13 AM 39.2 °F 30.5 °F 39.2 °F 100% 29.52 in 1.2 mi NNW 16.1 mph 23.0 mph N/A Rain Light Rain
9:33 AM 39.4 °F 31.4 °F 39.2 °F 99% 29.53 in 1.2 mi NW 13.8 mph 18.4 mph N/A Rain Light Rain
9:54 AM 39.2 °F 32.0 °F 38.7 °F 98% 29.53 in 1.5 mi NW 11.5 mph - N/A Rain Light Rain
10:13 AM 39.2 °F 30.5 °F 38.7 °F 98% 29.53 in 2.0 mi NW 16.1 mph 19.6 mph N/A Rain Light Rain
10:33 AM 39.0 °F 30.6 °F 38.7 °F 99% 29.53 in 1.8 mi NW 15.0 mph 20.7 mph N/A Rain Light Rain
10:54 AM 39.0 °F 31.0 °F 38.5 °F 98% 29.53 in 1.5 mi NNW 13.8 mph 19.6 mph N/A Rain Light Rain
11:13 AM 38.8 °F 31.2 °F 38.5 °F 99% 29.54 in 1.0 mi NW 12.7 mph - N/A Rain Light Rain
11:33 AM 38.8 °F 30.0 °F 38.5 °F 99% 29.54 in 1.2 mi NNW 16.1 mph 19.6 mph N/A Rain Light Rain
11:54 AM 39.2 °F 31.6 °F 38.7 °F 98% 29.54 in 1.8 mi NW 12.7 mph - N/A Rain Light Rain
12:18 PM 39.2 °F 31.2 °F 38.8 °F 99% 29.55 in 2.0 mi NW 13.8 mph 19.6 mph N/A   Overcast
12:33 PM 38.8 °F 30.8 °F 38.3 °F 98% 29.55 in 4.0 mi NW 13.8 mph - N/A Rain Light Rain
12:53 PM 38.8 °F 31.2 °F 38.3 °F 98% 29.55 in 4.0 mi NW 12.7 mph 24.2 mph N/A   Overcast
1:13 PM 38.5 °F 30.3 °F 37.9 °F 98% 29.54 in 3.0 mi NW 13.8 mph 20.7 mph N/A Rain Light Rain
1:33 PM 38.7 °F 30.1 °F 38.3 °F 99% 29.55 in 10.0 mi NW 15.0 mph 20.7 mph N/A Rain Light Rain
1:53 PM 39.2 °F 32.0 °F 38.3 °F 97% 29.55 in 10.0 mi NW 11.5 mph - N/A Rain Light Rain
2:18 PM 39.2 °F 32.5 °F 38.3 °F 97% 29.55 in 10.0 mi NW 10.4 mph - N/A Rain Light Rain
2:34 PM 38.7 °F 31.4 °F 37.8 °F 97% 29.55 in 5.0 mi NW 11.5 mph - N/A Rain Light Rain
3:13 PM 39.2 °F 30.8 °F 38.3 °F 97% 29.54 in 4.0 mi NW 15.0 mph - N/A Rain Light Rain
3:34 PM 39.2 °F 32.5 °F 38.3 °F 97% 29.54 in 7.0 mi NW 10.4 mph - N/A Rain Light Rain
3:53 PM 39.4 °F 32.7 °F 38.5 °F 97% 29.55 in 10.0 mi NW 10.4 mph - N/A Rain Light Rain
4:13 PM 39.7 °F 34.3 °F 38.7 °F 96% 29.54 in 10.0 mi NW 8.1 mph - N/A   Overcast
4:34 PM 39.6 °F 33.0 °F 38.5 °F 96% 29.55 in 7.0 mi WNW 10.4 mph - N/A Rain Light Rain
4:53 PM 39.7 °F 33.2 °F 38.7 °F 96% 29.55 in 7.0 mi WNW 10.4 mph - N/A Rain Light Rain
5:13 PM 39.6 °F 33.0 °F 38.7 °F 97% 29.55 in 5.0 mi NW 10.4 mph 16.1 mph N/A Rain Light Rain
5:34 PM 39.6 °F 34.0 °F 38.7 °F 97% 29.55 in 5.0 mi WNW 8.1 mph - N/A Rain Light Rain
5:53 PM 39.6 °F 33.0 °F 38.8 °F 97% 29.56 in 4.0 mi NW 10.4 mph - N/A Rain Light Rain
6:14 PM 39.6 °F 33.0 °F 38.8 °F 97% 29.57 in 7.0 mi WNW 10.4 mph - N/A Rain Light Rain
6:34 PM 39.4 °F 33.2 °F 38.7 °F 97% 29.57 in 10.0 mi WNW 9.2 mph - N/A Rain Light Rain
6:53 PM 39.6 °F 34.7 °F 38.8 °F 97% 29.57 in 7.0 mi WNW 6.9 mph - N/A Rain Light Rain
7:14 PM 40.1 °F 34.7 °F 39.2 °F 97% 29.58 in 10.0 mi NW 8.1 mph - N/A   Overcast
7:34 PM 40.1 °F 34.1 °F 39.2 °F 97% 29.58 in 10.0 mi NW 9.2 mph - N/A   Overcast
7:53 PM 40.3 °F 32.2 °F 39.0 °F 95% 29.58 in 10.0 mi NW 15.0 mph - N/A   Overcast
8:14 PM 40.1 °F 31.6 °F 37.9 °F 92% 29.59 in 10.0 mi NW 16.1 mph 21.9 mph N/A   Overcast
8:33 PM 39.9 °F 33.9 °F 37.6 °F 91% 29.59 in 10.0 mi NW 9.2 mph 17.3 mph N/A   Overcast
8:53 PM 40.1 °F 34.1 °F 38.1 °F 93% 29.59 in 10.0 mi NW 9.2 mph - N/A   Overcast
9:14 PM 39.6 °F 31.7 °F 37.4 °F 92% 29.59 in 10.0 mi NW 13.8 mph 18.4 mph N/A   Overcast
9:33 PM 39.6 °F 32.1 °F 36.7 °F 89% 29.60 in 10.0 mi NW 12.7 mph 18.4 mph N/A   Overcast
9:53 PM 39.6 °F 32.5 °F 36.9 °F 90% 29.60 in 10.0 mi NW 11.5 mph - N/A   Overcast
10:13 PM 39.6 °F 32.1 °F 36.5 °F 89% 29.60 in 10.0 mi NW 12.7 mph 18.4 mph N/A   Overcast
10:33 PM 39.6 °F 32.5 °F 36.5 °F 89% 29.60 in 10.0 mi NW 11.5 mph 16.1 mph N/A   Overcast
10:54 PM 39.4 °F 31.8 °F 36.5 °F 89% 29.60 in 10.0 mi WNW 12.7 mph - N/A Rain Light Rain
11:13 PM 38.8 °F 30.8 °F 36.5 °F 91% 29.60 in 10.0 mi NW 13.8 mph - N/A Rain Light Rain
11:33 PM 38.7 °F 31.4 °F 36.5 °F 92% 29.60 in 10.0 mi WNW 11.5 mph - N/A   Overcast
11:53 PM 38.7 °F 31.4 °F 36.5 °F 92% 29.60 in 10.0 mi NW 11.5 mph 17.3 mph N/A   Overcast